CZ-6A DEB, 54568

Orbit data source: Space-Track

CZ-6A DEB, 54568 is space debris in SSO originally from a launch on Fri, 11 Nov 2022 UTC launched from the Taiyaun Space Center, China (TSC). Debris objects in space refer to the collection of defunct objects orbiting the Earth. Examples of debris include non-operational satellites, rocket bodies, and fragments generated from explosions, collisions, or faulty payload assembly.

Loading next visibility...
Identifier
54568, 2022-151LU
Orbit
SSO
Country
Flag of CNCN / PRC
Related business
Manufacturer
SAST
Mission
Spacecraft
Bus & Motor
Unknown
Mass
Unknown
Launch date (UTC)
2022-11-11 (4 years ago)
Launch vehicle
Unknown
Launch site
Taiyaun Space Center, China (TSC)
Object type
Payload
Rocket body
Debris
Shape & HBR
Unknown shape, 0.1 m
Radar Cross Section
Small (<0.1 m²)

Expand to show TLE details & history
Last TLE update: 2 days ago

TLE from 2 days ago
0 CZ-6A DEB
1 54568U 22151LU  26171.36900243  .00004586  00000-0  13117-2 0  9991
2 54568  98.7388 213.2758 0027195 277.6123  82.1979 14.45348931188222
Epoch: 2026-06-20T08:51Z
TLE epoch observation values (Epoch: 2026-06-20T08:51:21.809Z)
Latitude
-0.00002°
Longitude
171.85031°
Altitude
741.251 km
Speed
7.486 km/s
True Right ascension
14h 13m 06s
True Declination
0° 00' 00"
Sunlit
Object was in full shadow at epoch
Visualization orbit readout
Latitude
Unknown
Longitude
Unknown
Altitude
Unknown
Speed
Unknown
Apparent Right ascension
Unknown
Apparent Declination
Unknown
Sunlit
N/A
Visualization observer readout
Local Sidereal Time
21:25:09
Azimuth
Unknown
Elevation
Unknown
Doppler factor
Unknown
Orbital elements
Apogee altitude
757.359 km
Perigee altitude
718.654 km
Semi-major axis
7,116.143 km
Eccentricity
0.00272
Inclination
98.7388°
RAAN
213.2758°
Arg. of periapsis
277.6123°
True anomaly
82.50679°
Mean anomaly
82.1979°
Eccentric anomaly
82.35233°
Mean motion
3.61556 °/min
Orbital period
99.57 mins
BSTAR
0.0013117
Loading maneuver chart data...
Computing Atmospheric mass density...
Loading historical data...
Loading historical data...
Loading historical data...
Loading historical data...
Loading historical data...
Loading historical data...
Loading historical data...

Documentation

Showing up to 5 results
|